Regional Weather Roundup
Issued by NWS

Home | Current Version | Previous Version | Text Only | Print | Product List | Glossary Off
Versions: 1 2 3 4 5 6 7 8 9 10 11 12 13 14 15 16 17 18 19 20 21 22 23 24 25 26 27 28 29 30 31 32 33 34 35 36 37 38 39 40 41 42 43 44 45 46 47 48 49 50

000
ASUS43 KLMK 060802
RWRKY
KENTUCKY REGIONAL WEATHER ROUNDUP
NATIONAL WEATHER SERVICE LOUISVILLE KY
300 AM EST TUE DEC 06 2016

NOTE "FAIR" INDICATES FEW OR NO CLOUDS BELOW 12,000 FEET
WITH NO SIGNIFICANT WEATHER AND/OR OBSTRUCTIONS TO VISIBILITY.

KYZ001>023-026-027-061>063-070>075-060900-
WESTERN AND SOUTH CENTRAL KENTUCKY

CITY           SKY/WX    TMP DP  RH WIND       PRES   REMARKS
PADUCAH        LGT RAIN  41  39  93 NE6       29.70F FOG
HENDERSON      CLOUDY    43  37  81 NE8       29.73F
OWENSBORO      RAIN      42  41  96 NE7       29.75S FOG
HOPKINSVILLE   DRIZZLE   45  45 100 E3        29.70S FOG
BOWLING GREEN  LGT RAIN  46  44  93 NE5       29.72F
GLASGOW        NOT AVBL
$$

KYZ024-025-028>034-038-045-046-053-060900-
NORTH CENTRAL KENTUCKY

CITY           SKY/WX    TMP DP  RH WIND       PRES   REMARKS
LOUISVILLE/SDF RAIN      43  39  86 NE7       29.76F FOG
LOUISVILLE/LOU RAIN      43  40  89 NE3       29.79S FOG
FORT KNOX      MIX PCPN  42  40  96 NE7       29.73F FOG
$$

KYZ035>037-039>044-047>052-055>060-089>105-060900-
NORTHEAST KENTUCKY

CITY           SKY/WX    TMP DP  RH WIND       PRES   REMARKS
LEXINGTON      RAIN      42  38  85 E12       29.78F FOG
COVINGTON      CLOUDY    40  33  76 E10       29.82R WCI  33
FRANKFORT      LGT RAIN  43  37  79 E7        29.77F
$$

KYZ054-064>069-076>088-106>120-060900-
SOUTHEAST KENTUCKY

CITY           SKY/WX    TMP DP  RH WIND       PRES   REMARKS
JACKSON        LGT RAIN  43  37  79 VRB5      29.78F
LONDON         LGT RAIN  46  41  82 E5        29.76F
SOMERSET       NOT AVBL
MIDDLESBORO    LGT RAIN  51  48  89 W3        29.82R
MONTICELLO     LGT RAIN  48  46  93 VRB6      29.76S
$$





USA.gov is the U.S. government's official web portal to all federal, state and local government web resources and services.